Regional Weather Roundup
Issued by NWS Goodland, KS

Home | Current Version | Previous Version | Graphics & Text | Print | Product List | Glossary On
Versions: 1 2 3 4 5 6 7 8 9 10 11 12 13 14 15 16 17 18 19 20 21 22 23 24 25 26 27 28 29 30 31 32 33 34 35 36 37 38 39 40 41 42 43 44 45 46 47 48 49 50
000
ASUS43 KGLD 031559
RWRGLD

GOODLAND FORECAST AREA HOURLY WEATHER ROUNDUP
NATIONAL WEATHER SERVICE GOODLAND KS
1000 AM MDT TUE MAY 03 2016

...OFFICIAL OBSERVATIONS...

CITY           SKY/WX    TMP DP  RH WIND       PRES   REMARKS
GOODLAND KS    MOSUNNY   56  42  59 N13G18    30.12R
HILL CITY KS   SUNNY     59  43  55 N7        30.09R
IMPERIAL NEB   MOSUNNY   54  43  66 N13       30.13R
MCCOOK NEB     MOSUNNY   55  44  66 N9        30.10S
AKRON CO       SUNNY     53  36  52 N20       30.18R
BURLINGTON CO  SUNNY     55  37  50 N16G25    30.14R
LIMON CO       SUNNY     51  37  58 N23G31    30.19R
$$

...UNOFFICIAL OBSERVATIONS...

CITY           SKY/WX    TMP DP  RH WIND       PRES   REMARKS
COLBY KS       MOSUNNY   55  46  71 N12G20    30.12R
LENORA KS        N/A     56  32  40 MISG        N/A
NORTON KS      MOSUNNY   55  41  58 N6        30.08S
SHARON SPRINGS   N/A     56  42  60 N14         N/A
KIT CARSON CO    N/A     55  36  49 MISG        N/A
YUMA CO          N/A     54  41  61 N13G20      N/A
$$




USA.gov is the U.S. government's official web portal to all federal, state and local government web resources and services.